Location: Long Island Community Building
(39.9491°N, 99.5338°W)
Time: 04:40:19
(UTC+00:00)

Meteor 1-20 Rocket - Pass Details

Date: 06 December 2019
Orbit: 819 x 892 km, 81.2° (Epoch: 28 January)

Event Time Altitude Azimuth Distance (km) Brightness Sun altitude
Rises 12:16:21 0° 188° (S) 3,469 7.5 -16.6°
Reaches altitude 10° 12:18:46 10° 188° (S) 2,541 6.8 -16.1°
Maximum altitude 12:24:35 88° 279° (W) 898 4.3 -15.0°
Drops below altitude 10° 12:30:28 10° 9° (N) 2,568 6.6 -14.0°
Sets 12:32:56 0° 10° (N) 3,509 7.3 -13.5°
